Location: Newark
(51.2625°N, 13.3939°E)
Time: 20:34:36
(UTC+00:00)

deb Explorer IX - Pass Details

Date: 20 November 2019
Orbit: 546 x 1104 km, 38.8° (Epoch: 14 December)

Event Time Altitude Azimuth Distance (km) Brightness Sun altitude
Rises 03:38:12 0° 257° (WSW) 3,411 - -26.6°
Reaches altitude 10° 03:41:50 10° 237° (WSW) 2,345 - -26.1°
Maximum altitude 03:45:01 16° 201° (SSW) 1,863 - -25.6°
Exits shadow 03:46:08 15° 186° (S) 1,880 ? -25.4°
Drops below altitude 10° 03:47:58 10° 164° (SSE) 2,127 ? -25.1°
Sets 03:51:01 0° 142° (SE) 2,936 ? -24.6°
